Terug naar catalogus

FENGYUN 1C DEB

ActiefSSO
NORAD 31313·DEBRIS·🇨🇳 China

Gelanceerd May 10, 1999 vanaf Taiyuan Satellite Launch Center

Loading…

Volgende Passages (komende 24 uur)

TLE

VersSource: Space-Track

Epoch: Sep 12, 2026, 05:15 UTC

1 31313U 99025BPR 26255.21881575  .00000315  00000-0  15999-3 0  9998
2 31313  99.0011 170.1306 0045634 117.2151 243.3687 14.22590223  9250

Volg FENGYUN 1C DEB in realtime met AllMySat

Download on the App Store